DLH7T EDDM-EDDB

Flight info

Callsign DLH7T
Flight time 1h 15m
Altitude 29000
Route AKINI1Q AKINI Y104 MAMOR L132 RUDNO T203 TIVDA DCT ETVIS DCT NAVEK DCT GAVLI/N0448F300 T203 ATGUP ATGUP1R
Aircraft A21N/M-SDE3FGHIRWY/LB1

Departure

Time 2026-04-30 18:47
Airport Munich Airport (EDDM)

Arrival

Time 2026-04-30 20:02
Airport Berlin Brandenburg Airport (EDDB)
Time Latitude Longitude Altitude Speed Heading
2026-04-30 17:56 48.35423 11.80028 1471 ft 0 kts 263°
2026-04-30 18:31 48.35423 11.80029 1471 ft 0 kts 263°
2026-04-30 18:32 48.35424 11.80034 1471 ft 2 kts 264°
2026-04-30 18:32 48.35427 11.80078 1471 ft 2 kts 283°
2026-04-30 18:33 48.35420 11.80098 1471 ft 2 kts 314°
2026-04-30 18:33 48.35401 11.80113 1471 ft 1 kts 358°
2026-04-30 18:33 48.35397 11.80113 1471 ft 0 kts 354°
2026-04-30 18:36 48.35428 11.80108 1471 ft 5 kts 354°
2026-04-30 18:37 48.35474 11.80100 1470 ft 8 kts 353°
2026-04-30 18:37 48.35548 11.80088 1470 ft 12 kts 353°
2026-04-30 18:37 48.35641 11.80072 1469 ft 14 kts 355°
2026-04-30 18:37 48.35741 11.80072 1468 ft 14 kts 356°
2026-04-30 18:38 48.35807 11.79979 1468 ft 14 kts 270°
2026-04-30 18:38 48.35798 11.79833 1468 ft 14 kts 263°
2026-04-30 18:38 48.35787 11.79697 1469 ft 9 kts 263°
2026-04-30 18:38 48.35785 11.79677 1469 ft 0 kts 263°
2026-04-30 18:39 48.35782 11.79622 1469 ft 8 kts 268°
2026-04-30 18:39 48.35794 11.79531 1470 ft 9 kts 295°
2026-04-30 18:39 48.35832 11.79447 1470 ft 9 kts 310°
2026-04-30 18:40 48.35878 11.79383 1470 ft 8 kts 326°
2026-04-30 18:40 48.35932 11.79345 1470 ft 4 kts 344°
2026-04-30 18:40 48.35966 11.79335 1469 ft 5 kts 349°
2026-04-30 18:40 48.36009 11.79327 1469 ft 7 kts 355°
2026-04-30 18:41 48.36072 11.79300 1469 ft 11 kts 315°
2026-04-30 18:41 48.36081 11.79164 1470 ft 14 kts 264°
2026-04-30 18:41 48.36069 11.79013 1470 ft 14 kts 263°
2026-04-30 18:41 48.36058 11.78868 1471 ft 14 kts 263°
2026-04-30 18:42 48.36047 11.78722 1472 ft 14 kts 263°
2026-04-30 18:42 48.36024 11.78423 1473 ft 14 kts 263°
2026-04-30 18:42 48.36012 11.78274 1473 ft 14 kts 263°
2026-04-30 18:45 48.36267 11.76939 1473 ft 9 kts 13°
2026-04-30 18:45 48.36295 11.77001 1473 ft 0 kts 81°
2026-04-30 18:46 48.36301 11.77057 1473 ft 24 kts 81°
2026-04-30 18:46 48.36348 11.77685 1471 ft 95 kts 83°
2026-04-30 18:46 48.36447 11.78991 1468 ft 155 kts 84°
2026-04-30 18:47 48.36584 11.80712 1849 ft 171 kts 84°
2026-04-30 18:47 48.36727 11.82464 2464 ft 170 kts 84°
2026-04-30 18:47 48.36861 11.84170 3158 ft 164 kts 85°
2026-04-30 18:47 48.37038 11.85877 3660 ft 172 kts 72°
2026-04-30 18:48 48.37691 11.87456 4110 ft 185 kts 52°
2026-04-30 18:48 48.38714 11.88677 4641 ft 195 kts 38°
2026-04-30 18:48 48.39901 11.89805 5003 ft 211 kts 37°
2026-04-30 18:48 48.41203 11.91027 5280 ft 232 kts 39°
2026-04-30 18:49 48.42452 11.92646 5667 ft 246 kts 51°
2026-04-30 18:49 48.43508 11.94725 6262 ft 254 kts 57°
2026-04-30 18:49 48.44490 11.96915 7010 ft 257 kts 57°
2026-04-30 18:49 48.45742 11.98852 7698 ft 266 kts 32°
2026-04-30 18:50 48.47479 11.99808 8428 ft 270 kts 18°
2026-04-30 18:50 48.49297 12.00517 9125 ft 273 kts 17°
2026-04-30 18:50 48.51120 12.01244 9830 ft 274 kts 18°
2026-04-30 18:50 48.52942 12.02021 10495 ft 276 kts 19°
2026-04-30 18:51 48.54769 12.02838 11165 ft 277 kts 19°
2026-04-30 18:51 48.56605 12.03683 11824 ft 278 kts 20°
2026-04-30 18:51 48.58454 12.04548 12458 ft 279 kts 20°
2026-04-30 18:51 48.60292 12.05417 13086 ft 280 kts 20°
2026-04-30 18:52 48.62163 12.06307 13714 ft 281 kts 20°
2026-04-30 18:52 48.64019 12.07192 14292 ft 283 kts 20°
2026-04-30 18:52 48.65896 12.08088 14900 ft 284 kts 20°
2026-04-30 18:52 48.67780 12.08990 15479 ft 285 kts 21°
2026-04-30 18:53 48.69659 12.09893 16050 ft 286 kts 20°
2026-04-30 18:53 48.71538 12.10793 16625 ft 287 kts 20°
2026-04-30 18:53 48.73445 12.11719 17178 ft 288 kts 21°
2026-04-30 18:53 48.75297 12.12751 17693 ft 288 kts 25°
2026-04-30 18:54 48.77164 12.13996 17997 ft 296 kts 27°
2026-04-30 18:54 48.79051 12.15342 18203 ft 307 kts 27°
2026-04-30 18:54 48.81005 12.16747 18410 ft 318 kts 27°
2026-04-30 18:54 48.83057 12.18225 18618 ft 329 kts 27°
2026-04-30 18:55 48.85122 12.19715 18817 ft 339 kts 27°
2026-04-30 18:55 48.89497 12.22862 19216 ft 357 kts 27°
2026-04-30 18:55 48.91748 12.24446 19587 ft 360 kts 27°
2026-04-30 18:56 48.96307 12.27643 20455 ft 363 kts 27°
2026-04-30 18:56 48.98584 12.29245 20844 ft 365 kts 27°
2026-04-30 18:56 49.00903 12.30880 21243 ft 366 kts 27°
2026-04-30 18:57 49.05513 12.34135 22009 ft 369 kts 27°
2026-04-30 18:57 49.07856 12.35793 22397 ft 370 kts 27°
2026-04-30 18:57 49.10183 12.37442 22756 ft 371 kts 27°
2026-04-30 18:58 49.14875 12.40773 23470 ft 374 kts 27°
2026-04-30 18:58 49.17229 12.42447 23799 ft 376 kts 27°
2026-04-30 18:58 49.19598 12.44135 24103 ft 378 kts 27°
2026-04-30 18:59 49.24348 12.47523 24797 ft 379 kts 27°
2026-04-30 19:00 49.31501 12.52756 25675 ft 383 kts 30°
2026-04-30 19:00 49.33818 12.54798 25954 ft 383 kts 33°
2026-04-30 19:00 49.38192 12.59427 26517 ft 384 kts 37°
2026-04-30 19:01 49.42561 12.64186 27069 ft 386 kts 34°
2026-04-30 19:01 49.44873 12.66329 27332 ft 388 kts 32°
2026-04-30 19:02 49.49721 12.70135 27812 ft 391 kts 28°
2026-04-30 19:02 49.54630 12.73772 28283 ft 394 kts 28°
2026-04-30 19:03 49.59584 12.77435 28744 ft 396 kts 28°
2026-04-30 19:03 49.64678 12.80649 29286 ft 399 kts 22°
2026-04-30 19:04 49.70041 12.82738 29394 ft 403 kts 15°
2026-04-30 19:05 49.81131 12.85361 29401 ft 404 kts 13°
2026-04-30 19:06 49.92260 12.87932 29401 ft 403 kts 13°
2026-04-30 19:06 50.00525 12.89849 29401 ft 403 kts 13°
2026-04-30 19:07 50.08830 12.91789 29407 ft 403 kts 13°
2026-04-30 19:08 50.19949 12.94392 29428 ft 405 kts 13°
2026-04-30 19:09 50.28198 12.96986 29434 ft 400 kts 21°
2026-04-30 19:09 50.33352 13.00171 29429 ft 398 kts 28°
2026-04-30 19:10 50.43170 13.07881 29424 ft 397 kts 29°
2026-04-30 19:11 50.50575 13.13779 29407 ft 397 kts 29°
2026-04-30 19:12 50.55460 13.17688 29401 ft 396 kts 29°
2026-04-30 19:12 50.60344 13.21609 29401 ft 396 kts 29°
2026-04-30 19:13 50.70163 13.29525 29410 ft 397 kts 29°
2026-04-30 19:14 50.75167 13.33062 29399 ft 402 kts 18°
2026-04-30 19:14 50.80604 13.35050 29413 ft 403 kts 17°
2026-04-30 19:15 50.86074 13.37099 29413 ft 402 kts 17°
2026-04-30 19:15 50.94192 13.40199 29417 ft 403 kts 17°
2026-04-30 19:16 50.99659 13.42303 29419 ft 403 kts 17°
2026-04-30 19:17 51.07795 13.45449 29134 ft 403 kts 17°
2026-04-30 19:17 51.13183 13.47536 28608 ft 398 kts 17°
2026-04-30 19:17 51.15873 13.48593 28343 ft 396 kts 17°
2026-04-30 19:18 51.20326 13.50309 27898 ft 397 kts 17°
2026-04-30 19:18 51.23880 13.51685 27273 ft 395 kts 17°
2026-04-30 19:18 51.26555 13.52724 26862 ft 392 kts 17°
2026-04-30 19:19 51.29163 13.53742 26373 ft 389 kts 17°
2026-04-30 19:19 51.31767 13.54759 25818 ft 387 kts 17°
2026-04-30 19:19 51.36945 13.56790 24724 ft 379 kts 17°
2026-04-30 19:20 51.39468 13.57780 24170 ft 376 kts 17°
2026-04-30 19:20 51.41998 13.58776 23610 ft 373 kts 17°
2026-04-30 19:20 51.46998 13.60747 22513 ft 368 kts 17°
2026-04-30 19:21 51.49446 13.61714 21965 ft 366 kts 17°
2026-04-30 19:21 51.54359 13.63658 20890 ft 361 kts 17°
2026-04-30 19:22 51.59190 13.65574 20416 ft 361 kts 18°
2026-04-30 19:22 51.66491 13.68477 18961 ft 369 kts 18°
2026-04-30 19:23 51.73916 13.71438 16659 ft 361 kts 17°
2026-04-30 19:24 51.78687 13.73346 15460 ft 351 kts 17°
2026-04-30 19:24 51.81016 13.74282 14920 ft 349 kts 17°
2026-04-30 19:24 51.85712 13.76168 13851 ft 346 kts 17°
2026-04-30 19:25 51.92722 13.77993 12288 ft 347 kts 356°
2026-04-30 19:26 51.97260 13.75539 12196 ft 347 kts 342°
2026-04-30 19:26 52.01712 13.72484 11335 ft 345 kts 342°
2026-04-30 19:26 52.03850 13.70899 11080 ft 337 kts 336°
2026-04-30 19:27 52.07490 13.66481 10763 ft 320 kts 324°
2026-04-30 19:27 52.10037 13.60814 10335 ft 318 kts 288°
2026-04-30 19:28 52.10351 13.57296 10103 ft 314 kts 281°
2026-04-30 19:28 52.10817 13.50317 9392 ft 309 kts 281°
2026-04-30 19:29 52.11312 13.43486 8728 ft 301 kts 281°
2026-04-30 19:29 52.11559 13.40159 8618 ft 289 kts 281°
2026-04-30 19:30 52.13243 13.31684 8069 ft 251 kts 314°
2026-04-30 19:30 52.15383 13.27298 7464 ft 246 kts 312°
2026-04-30 19:31 52.17416 13.22969 7001 ft 235 kts 311°
2026-04-30 19:31 52.18370 13.20828 6729 ft 233 kts 303°
2026-04-30 19:31 52.18299 13.15833 6424 ft 222 kts 248°
2026-04-30 19:32 52.17702 13.13588 6398 ft 212 kts 248°
2026-04-30 19:32 52.17130 13.11402 6410 ft 211 kts 249°
2026-04-30 19:32 52.16571 13.09194 6410 ft 211 kts 250°
2026-04-30 19:32 52.16021 13.06969 6406 ft 211 kts 250°
2026-04-30 19:33 52.15475 13.04731 6406 ft 212 kts 250°
2026-04-30 19:33 52.14934 13.02500 6407 ft 212 kts 249°
2026-04-30 19:33 52.14397 13.00285 6409 ft 212 kts 249°
2026-04-30 19:33 52.13850 12.98038 6405 ft 212 kts 249°
2026-04-30 19:34 52.13309 12.95822 6406 ft 212 kts 249°
2026-04-30 19:34 52.12770 12.93613 6402 ft 212 kts 249°
2026-04-30 19:34 52.11680 12.89150 6404 ft 212 kts 249°
2026-04-30 19:35 52.11140 12.86947 6405 ft 212 kts 249°
2026-04-30 19:35 52.10593 12.84718 6405 ft 212 kts 249°
2026-04-30 19:35 52.10050 12.82502 6407 ft 213 kts 250°
2026-04-30 19:35 52.09498 12.80254 6405 ft 213 kts 250°
2026-04-30 19:36 52.08950 12.78019 6406 ft 213 kts 249°
2026-04-30 19:36 52.08402 12.75794 6409 ft 213 kts 249°
2026-04-30 19:36 52.07535 12.71236 6391 ft 212 kts 279°
2026-04-30 19:37 52.08023 12.68934 6445 ft 220 kts 312°
2026-04-30 19:37 52.09159 12.67389 6436 ft 213 kts 341°
2026-04-30 19:37 52.10542 12.66531 6445 ft 212 kts 345°
2026-04-30 19:37 52.11924 12.65708 6428 ft 212 kts 346°
2026-04-30 19:38 52.13347 12.65386 6410 ft 208 kts 14°
2026-04-30 19:38 52.14668 12.66303 6432 ft 210 kts 41°
2026-04-30 19:38 52.15562 12.68208 6444 ft 220 kts 66°
2026-04-30 19:38 52.16116 12.70526 6445 ft 220 kts 68°
2026-04-30 19:39 52.16678 12.72874 6430 ft 220 kts 67°
2026-04-30 19:39 52.17236 12.75176 6425 ft 220 kts 67°
2026-04-30 19:39 52.17798 12.77473 6424 ft 220 kts 67°
2026-04-30 19:39 52.18362 12.79778 6421 ft 220 kts 67°
2026-04-30 19:40 52.18930 12.82101 6422 ft 220 kts 67°
2026-04-30 19:40 52.19549 12.84397 6425 ft 221 kts 63°
2026-04-30 19:40 52.20217 12.86659 6415 ft 221 kts 64°
2026-04-30 19:40 52.20857 12.88925 6179 ft 223 kts 65°
2026-04-30 19:41 52.21482 12.91254 5839 ft 223 kts 66°
2026-04-30 19:41 52.22073 12.93568 5534 ft 221 kts 66°
2026-04-30 19:41 52.22641 12.95875 5248 ft 219 kts 67°
2026-04-30 19:41 52.23183 12.98143 4961 ft 217 kts 68°
2026-04-30 19:42 52.23724 13.00454 4680 ft 215 kts 68°
2026-04-30 19:42 52.24242 13.02695 4418 ft 213 kts 68°
2026-04-30 19:42 52.24759 13.04948 4136 ft 212 kts 68°
2026-04-30 19:42 52.25274 13.07198 3854 ft 211 kts 68°
2026-04-30 19:43 52.25780 13.09405 3582 ft 210 kts 68°
2026-04-30 19:43 52.26294 13.11641 3311 ft 209 kts 68°
2026-04-30 19:43 52.26802 13.13845 3061 ft 211 kts 68°
2026-04-30 19:44 52.27876 13.18477 2990 ft 218 kts 68°
2026-04-30 19:44 52.28403 13.20740 2969 ft 207 kts 68°
2026-04-30 19:44 52.28897 13.22858 3037 ft 192 kts 68°
2026-04-30 19:44 52.29350 13.24798 2955 ft 178 kts 67°
2026-04-30 19:45 52.29783 13.26641 2733 ft 170 kts 67°
2026-04-30 19:45 52.30187 13.28367 2539 ft 157 kts 67°
2026-04-30 19:45 52.30560 13.29956 2301 ft 146 kts 66°
2026-04-30 19:45 52.30920 13.31484 2102 ft 145 kts 67°
2026-04-30 19:46 52.31282 13.33021 1908 ft 144 kts 67°
2026-04-30 19:46 52.31646 13.34563 1722 ft 144 kts 67°
2026-04-30 19:46 52.32000 13.36068 1537 ft 144 kts 67°
2026-04-30 19:46 52.32359 13.37590 1343 ft 143 kts 67°
2026-04-30 19:47 52.32718 13.39113 1154 ft 143 kts 67°
2026-04-30 19:47 52.32958 13.40127 1050 ft 151 kts 67°
2026-04-30 19:47 52.33467 13.42286 1879 ft 151 kts 67°
2026-04-30 19:47 52.33860 13.43949 2439 ft 167 kts 67°
2026-04-30 19:48 52.34302 13.45806 2953 ft 189 kts 66°
2026-04-30 19:48 52.34800 13.47897 3463 ft 203 kts 66°
2026-04-30 19:48 52.35315 13.50067 3951 ft 210 kts 66°
2026-04-30 19:48 52.35846 13.52315 4435 ft 211 kts 67°
2026-04-30 19:49 52.36056 13.54654 4848 ft 217 kts 91°
2026-04-30 19:49 52.34360 13.58715 4999 ft 228 kts 140°
2026-04-30 19:49 52.33073 13.60174 5007 ft 227 kts 141°
2026-04-30 19:50 52.31748 13.61604 5001 ft 229 kts 146°
2026-04-30 19:50 52.30219 13.62411 4993 ft 235 kts 169°
2026-04-30 19:50 52.28579 13.62285 5001 ft 241 kts 187°
2026-04-30 19:50 52.27092 13.61034 4980 ft 244 kts 225°
2026-04-30 19:51 52.26241 13.58673 4963 ft 245 kts 248°
2026-04-30 19:51 52.25627 13.56090 4918 ft 243 kts 251°
2026-04-30 19:51 52.25039 13.53527 4961 ft 244 kts 250°
2026-04-30 19:51 52.24407 13.50957 4972 ft 245 kts 249°
2026-04-30 19:52 52.23774 13.48394 4980 ft 244 kts 253°
2026-04-30 19:52 52.23311 13.45733 4996 ft 243 kts 257°
2026-04-30 19:52 52.22907 13.43057 5013 ft 244 kts 258°
2026-04-30 19:52 52.22500 13.40365 4998 ft 244 kts 257°
2026-04-30 19:53 52.22082 13.37707 5001 ft 244 kts 257°
2026-04-30 19:53 52.21648 13.35041 4890 ft 244 kts 256°
2026-04-30 19:53 52.21201 13.32340 4495 ft 248 kts 256°
2026-04-30 19:53 52.20747 13.29615 4045 ft 252 kts 256°
2026-04-30 19:54 52.20290 13.26877 3605 ft 256 kts 256°
2026-04-30 19:54 52.19828 13.24083 3285 ft 253 kts 258°
2026-04-30 19:54 52.19792 13.21294 3022 ft 242 kts 288°
2026-04-30 19:54 52.20556 13.19017 3008 ft 220 kts 315°
2026-04-30 19:55 52.21709 13.17634 3050 ft 194 kts 336°
2026-04-30 19:55 52.22893 13.16850 2998 ft 179 kts 342°
2026-04-30 19:55 52.23998 13.16187 2958 ft 162 kts 342°
2026-04-30 19:55 52.25068 13.15744 2963 ft 158 kts 359°
2026-04-30 19:56 52.26147 13.16008 2977 ft 156 kts 21°
2026-04-30 19:56 52.27023 13.17002 2977 ft 155 kts 49°
2026-04-30 19:56 52.27616 13.18454 2982 ft 156 kts 60°
2026-04-30 19:56 52.28098 13.20041 2981 ft 156 kts 63°
2026-04-30 19:57 52.28557 13.21663 2980 ft 156 kts 65°
2026-04-30 19:57 52.28984 13.23292 2978 ft 156 kts 66°
2026-04-30 19:57 52.29393 13.24939 2934 ft 157 kts 67°
2026-04-30 19:57 52.29786 13.26578 2729 ft 156 kts 67°
2026-04-30 19:58 52.30168 13.28205 2505 ft 148 kts 67°
2026-04-30 19:58 52.30525 13.29734 2305 ft 144 kts 67°
2026-04-30 19:58 52.30881 13.31262 2171 ft 144 kts 67°
2026-04-30 19:58 52.31238 13.32789 1968 ft 144 kts 68°
2026-04-30 19:59 52.31591 13.34300 1778 ft 143 kts 68°
2026-04-30 19:59 52.31948 13.35823 1576 ft 143 kts 68°
2026-04-30 19:59 52.32637 13.38880 1173 ft 144 kts 69°
2026-04-30 20:00 52.32983 13.40393 979 ft 142 kts 66°
2026-04-30 20:00 52.33363 13.41884 757 ft 141 kts 66°
2026-04-30 20:00 52.33722 13.43359 578 ft 139 kts 69°
2026-04-30 20:00 52.34062 13.44847 411 ft 140 kts 67°
2026-04-30 20:01 52.34780 13.47847 140 ft 131 kts 68°
2026-04-30 20:01 52.35054 13.48998 145 ft 82 kts 66°
2026-04-30 20:01 52.35207 13.49645 146 ft 50 kts 69°
2026-04-30 20:02 52.35422 13.50449 143 ft 26 kts 53°
2026-04-30 20:02 52.35547 13.50646 140 ft 20 kts 38°
2026-04-30 20:03 52.35627 13.50748 140 ft 4 kts 38°
2026-04-30 20:03 52.35654 13.50782 140 ft 4 kts 30°
2026-04-30 20:03 52.35674 13.50756 140 ft 5 kts 308°
2026-04-30 20:03 52.35701 13.50714 140 ft 5 kts 327°
2026-04-30 20:04 52.35740 13.50685 140 ft 6 kts 338°
2026-04-30 20:04 52.35791 13.50654 140 ft 9 kts 340°
2026-04-30 20:04 52.35855 13.50638 140 ft 9 kts
2026-04-30 20:05 52.35997 13.50602 140 ft 11 kts 339°
2026-04-30 20:05 52.36072 13.50556 140 ft 11 kts 339°
2026-04-30 20:05 52.36233 13.50453 140 ft 12 kts 339°
2026-04-30 20:06 52.36320 13.50400 140 ft 13 kts 339°
2026-04-30 20:06 52.36407 13.50343 140 ft 13 kts 338°
2026-04-30 20:06 52.36476 13.50299 140 ft 8 kts 338°
2026-04-30 20:06 52.36518 13.50283 140 ft 5 kts 18°
2026-04-30 20:07 52.36546 13.50335 140 ft 6 kts 62°
2026-04-30 20:07 52.36563 13.50408 140 ft 7 kts 69°
2026-04-30 20:07 52.36577 13.50466 141 ft 0 kts 68°
2026-04-30 20:08 52.36577 13.50467 141 ft 0 kts 68°